| time (UTC) | temp C | wind direction | speed KPH | gust KPH | rain 1hr cm | rain 24hr cm | rain mn cm | humidity % | barometer mb |
| 20260503053431 | 11 | 212 | 0.0 | 1.6 | 0.03 | 0.20 | 0.03 | 93 | 1014.7 |
| 20260503052931 | 11 | 212 | 0.0 | 0.0 | 0.03 | 0.20 | 0.03 | 93 | 1014.6 |
| 20260503052431 | 11 | 212 | 0.0 | 1.6 | 0.03 | 0.20 | 0.03 | 93 | 1014.5 |
| 20260503052216 | 11 | 212 | 0.0 | 1.6 | 0.03 | 0.20 | 0.03 | 93 | 1014.5 |
| 20260503051431 | 11 | 212 | 0.0 | 1.6 | 0.03 | 0.20 | 0.03 | 93 | 1014.4 |
| 20260503050928 | 11 | 212 | 0.0 | 4.8 | 0.03 | 0.20 | 0.03 | 93 | 1014.5 |
| 20260503045928 | 11 | 212 | 3.2 | 4.8 | 0.03 | 0.18 | 0.03 | 93 | 1014.5 |
| 20260503045426 | 11 | 212 | 1.6 | 3.2 | 0.03 | 0.18 | 0.03 | 92 | 1014.5 |
| 20260503044925 | 11 | 212 | 0.0 | 1.6 | 0.00 | 0.18 | 0.00 | 92 | 1014.5 |
| 20260503044425 | 11 | 212 | 0.0 | 0.0 | 0.00 | 0.18 | 0.00 | 92 | 1014.5 |
| 20260503043926 | 11 | 212 | 0.0 | 0.0 | 0.00 | 0.18 | 0.00 | 92 | 1014.5 |
| 20260503043657 | 11 | 212 | 0.0 | 0.0 | 0.00 | 0.18 | 0.00 | 92 | 1014.5 |
| 20260503043155 | 11 | 212 | 0.0 | 0.0 | 0.00 | 0.18 | 0.00 | 92 | 1014.5 |
| 20260503042422 | 11 | 212 | 0.0 | 6.4 | 0.00 | 0.18 | 0.00 | 92 | 1014.4 |
| 20260503041922 | 11 | 212 | 0.0 | 8.0 | 0.00 | 0.18 | 0.00 | 92 | 1014.4 |
| 20260503041422 | 11 | 212 | 4.8 | 8.0 | 0.00 | 0.18 | 0.00 | 92 | 1014.4 |
| 20260503040922 | 11 | 191 | 3.2 | 6.4 | 0.00 | 0.18 | 0.00 | 92 | 1014.4 |
| 20260503040420 | 11 | 270 | 0.0 | 6.4 | 0.00 | 0.18 | 0.00 | 91 | 1014.3 |
| 20260503035918 | 11 | 270 | 1.6 | 9.7 | 0.00 | 0.18 | 0.00 | 91 | 1014.4 |
| 20260503035428 | 11 | 239 | 6.4 | 11.3 | 0.00 | 0.18 | 0.00 | 92 | 1014.3 |
| 20260503034414 | 11 | 216 | 9.7 | 14.5 | 0.00 | 0.18 | 0.00 | 92 | 1014.3 |
| 20260503033910 | 11 | 215 | 8.0 | 9.7 | 0.00 | 0.18 | 0.00 | 92 | 1014.2 |
| 20260503033411 | 11 | 304 | 3.2 | 6.4 | 0.00 | 0.18 | 0.00 | 92 | 1014.1 |
| 20260503032910 | 11 | 304 | 4.8 | 6.4 | 0.00 | 0.18 | 0.00 | 92 | 1014.1 |
| 20260503032642 | 11 | 304 | 3.2 | 9.7 | 0.00 | 0.18 | 0.00 | 92 | 1014.2 |
| 20260503031909 | 11 | 304 | 3.2 | 9.7 | 0.00 | 0.18 | 0.00 | 92 | 1014.3 |
| 20260503031409 | 11 | 222 | 9.7 | 9.7 | 0.00 | 0.18 | 0.00 | 92 | 1014.4 |
| 20260503030906 | 11 | 228 | 6.4 | 8.0 | 0.00 | 0.18 | 0.00 | 93 | 1014.2 |
| 20260503030407 | 11 | 259 | 0.0 | 4.8 | 0.00 | 0.18 | 0.00 | 93 | 1014.1 |
| 20260503025903 | 11 | 259 | 0.0 | 1.6 | 0.00 | 0.18 | 0.00 | 93 | 1014.1 |
| 20260503025404 | 11 | 259 | 0.0 | 3.2 | 0.00 | 0.18 | 0.00 | 93 | 1014.0 |
| 20260503024903 | 11 | 259 | 0.0 | 4.8 | 0.00 | 0.18 | 0.00 | 93 | 1014.1 |
| 20260503023903 | 11 | 259 | 4.8 | 6.4 | 0.00 | 0.18 | 0.00 | 93 | 1014.2 |
| 20260503023404 | 11 | 259 | 0.0 | 8.0 | 0.00 | 0.18 | 0.00 | 93 | 1014.3 |
| 20260503022903 | 11 | 259 | 3.2 | 8.0 | 0.00 | 0.18 | 0.00 | 93 | 1014.3 |
| 20260503022403 | 11 | 259 | 6.4 | 8.0 | 0.00 | 0.18 | 0.00 | 93 | 1014.4 |
| 20260503021902 | 12 | 262 | 6.4 | 8.0 | 0.00 | 0.18 | 0.00 | 94 | 1014.4 |
| 20260503021637 | 11 | 176 | 3.2 | 6.4 | 0.00 | 0.18 | 0.00 | 93 | 1014.4 |
| 20260503020902 | 11 | 176 | 0.0 | 6.4 | 0.00 | 0.18 | 0.00 | 93 | 1014.4 |
| 20260503020403 | 12 | 176 | 3.2 | 6.4 | 0.00 | 0.18 | 0.00 | 93 | 1014.4 |
| 20260503015903 | 12 | 23 | 0.0 | 4.8 | 0.00 | 0.18 | 0.00 | 93 | 1014.4 |
| 20260503014903 | 12 | 23 | 0.0 | 1.6 | 0.00 | 0.18 | 0.00 | 93 | 1014.5 |
| 20260503014403 | 12 | 23 | 0.0 | 0.0 | 0.00 | 0.18 | 0.00 | 93 | 1014.6 |
| 20260503013903 | 12 | 23 | 0.0 | 0.0 | 0.00 | 0.18 | 0.00 | 93 | 1014.6 |
| 20260503013417 | 12 | 23 | 0.0 | 1.6 | 0.00 | 0.18 | 0.00 | 93 | 1014.7 |
| 20260503012902 | 12 | 23 | 0.0 | 1.6 | 0.00 | 0.18 | 0.00 | 93 | 1014.6 |
| 20260503012402 | 12 | 23 | 0.0 | 0.0 | 0.00 | 0.18 | 0.00 | 93 | 1014.7 |
| 20260503011901 | 12 | 23 | 0.0 | 0.0 | 0.00 | 0.18 | 0.00 | 93 | 1014.8 |
| 20260503011416 | 12 | 23 | 0.0 | 3.2 | 0.00 | 0.18 | 0.00 | 93 | 1014.8 |
| 20260503010901 | 12 | 23 | 3.2 | 4.8 | 0.00 | 0.18 | 0.00 | 93 | 1014.9 |
| 20260503010401 | 12 | 23 | 3.2 | 4.8 | 0.00 | 0.18 | 0.00 | 93 | 1014.8 |
| 20260503005859 | 12 | 23 | 3.2 | 4.8 | 0.00 | 0.18 | 0.00 | 93 | 1014.9 |
| 20260503005359 | 12 | 23 | 1.6 | 3.2 | 0.00 | 0.18 | 0.00 | 93 | 1014.9 |
| 20260503004859 | 12 | 23 | 1.6 | 3.2 | 0.00 | 0.18 | 0.00 | 93 | 1015.0 |
| 20260503004359 | 12 | 23 | 0.0 | 3.2 | 0.00 | 0.18 | 0.00 | 93 | 1015.0 |
| 20260503003859 | 12 | 23 | 0.0 | 1.6 | 0.00 | 0.18 | 0.00 | 92 | 1015.0 |
| 20260503003359 | 12 | 23 | 0.0 | 1.6 | 0.00 | 0.18 | 0.00 | 92 | 1015.0 |
| 20260503002859 | 13 | 23 | 0.0 | 0.0 | 0.00 | 0.18 | 0.00 | 92 | 1015.1 |
| 20260503002634 | 13 | 23 | 0.0 | 0.0 | 0.00 | 0.18 | 0.00 | 92 | 1015.1 |
| 20260503001859 | 13 | 23 | 0.0 | 0.0 | 0.00 | 0.18 | 0.00 | 92 | 1015.2 |
| 20260503001359 | 13 | 23 | 0.0 | 6.4 | 0.00 | 0.18 | 0.00 | 92 | 1015.2 |
| 20260503000859 | 13 | 23 | 1.6 | 8.0 | 0.00 | 0.18 | 0.00 | 92 | 1015.2 |
| 20260503000400 | 13 | 23 | 6.4 | 8.0 | 0.00 | 0.18 | 0.00 | 92 | 1015.2 |
| 20260502235858 | 13 | 18 | 0.0 | 0.0 | 0.00 | 0.18 | 0.00 | 92 | 1015.4 |
| 20260502235359 | 13 | 18 | 0.0 | 1.6 | 0.00 | 0.18 | 0.00 | 92 | 1015.4 |
| 20260502234858 | 13 | 18 | 0.0 | 4.8 | 0.00 | 0.18 | 0.00 | 92 | 1015.5 |
| 20260502234358 | 13 | 18 | 1.6 | 4.8 | 0.00 | 0.18 | 0.00 | 92 | 1015.5 |
| 20260502233858 | 13 | 18 | 1.6 | 4.8 | 0.00 | 0.18 | 0.00 | 92 | 1015.5 |
| 20260502233358 | 13 | 18 | 1.6 | 3.2 | 0.00 | 0.18 | 0.00 | 92 | 1015.5 |
| 20260502232858 | 13 | 18 | 1.6 | 3.2 | 0.00 | 0.18 | 0.00 | 92 | 1015.5 |
| 20260502232358 | 13 | 18 | 0.0 | 0.0 | 0.00 | 0.18 | 0.00 | 92 | 1015.5 |
| 20260502231858 | 13 | 18 | 0.0 | 0.0 | 0.00 | 0.18 | 0.00 | 92 | 1015.6 |
| 20260502231358 | 13 | 18 | 0.0 | 0.0 | 0.00 | 0.18 | 0.00 | 92 | 1015.6 |
| 20260502231134 | 13 | 18 | 0.0 | 0.0 | 0.00 | 0.18 | 0.00 | 92 | 1015.6 |
| 20260502230357 | 13 | 18 | 0.0 | 0.0 | 0.00 | 0.18 | 0.00 | 92 | 1015.5 |
| 20260502225857 | 13 | 18 | 0.0 | 4.8 | 0.00 | 0.18 | 0.00 | 92 | 1015.6 |
| 20260502224857 | 14 | 18 | 0.0 | 6.4 | 0.00 | 0.18 | 0.00 | 92 | 1015.6 |
| 20260502223857 | 14 | 33 | 4.8 | 6.4 | 0.00 | 0.18 | 0.00 | 91 | 1015.6 |
| 20260502223356 | 14 | 87 | 0.0 | 0.0 | 0.00 | 0.18 | 0.00 | 91 | 1015.7 |
| 20260502222856 | 14 | 87 | 0.0 | 0.0 | 0.00 | 0.18 | 0.00 | 91 | 1015.6 |
| 20260502222356 | 15 | 87 | 0.0 | 6.4 | 0.00 | 0.18 | 0.00 | 91 | 1015.6 |
| 20260502221856 | 15 | 87 | 0.0 | 9.7 | 0.00 | 0.18 | 0.00 | 92 | 1015.7 |
| 20260502221356 | 15 | 91 | 4.8 | 9.7 | 0.00 | 0.18 | 0.00 | 92 | 1015.6 |
| 20260502220856 | 15 | 80 | 6.4 | 8.0 | 0.00 | 0.18 | 0.00 | 91 | 1015.7 |
| 20260502220356 | 15 | 80 | 6.4 | 8.0 | 0.00 | 0.18 | 0.00 | 91 | 1015.6 |
| 20260502215856 | 15 | 80 | 4.8 | 8.0 | 0.00 | 0.18 | 0.18 | 91 | 1015.6 |
| 20260502215355 | 15 | 80 | 3.2 | 4.8 | 0.00 | 0.18 | 0.18 | 91 | 1015.7 |
| 20260502214855 | 15 | 80 | 3.2 | 4.8 | 0.00 | 0.18 | 0.18 | 91 | 1015.7 |
| 20260502214355 | 15 | 80 | 0.0 | 6.4 | 0.00 | 0.18 | 0.18 | 91 | 1015.7 |
| 20260502213855 | 15 | 80 | 3.2 | 6.4 | 0.00 | 0.18 | 0.18 | 91 | 1015.7 |
| 20260502213354 | 15 | 80 | 1.6 | 6.4 | 0.00 | 0.18 | 0.18 | 91 | 1015.6 |
| 20260502213127 | 15 | 80 | 4.8 | 6.4 | 0.00 | 0.18 | 0.18 | 91 | 1015.6 |
| 20260502212355 | 15 | 80 | 1.6 | 6.4 | 0.00 | 0.18 | 0.18 | 91 | 1015.6 |
| 20260502211854 | 15 | 80 | 4.8 | 6.4 | 0.03 | 0.18 | 0.18 | 91 | 1015.6 |
| 20260502211355 | 15 | 80 | 0.0 | 0.0 | 0.03 | 0.18 | 0.18 | 91 | 1015.5 |
| 20260502211131 | 15 | 80 | 0.0 | 0.0 | 0.05 | 0.18 | 0.18 | 90 | 1015.5 |
| 20260502210354 | 15 | 80 | 0.0 | 3.2 | 0.05 | 0.18 | 0.18 | 90 | 1015.5 |
| 20260502205854 | 15 | 80 | 0.0 | 3.2 | 0.05 | 0.13 | 0.18 | 90 | 1015.6 |
| 20260502205631 | 15 | 80 | 0.0 | 3.2 | 0.05 | 0.13 | 0.18 | 90 | 1015.5 |
| 20260502204853 | 16 | 80 | 3.2 | 4.8 | 0.08 | 0.13 | 0.18 | 90 | 1015.6 |
| 20260502204354 | 16 | 80 | 3.2 | 4.8 | 0.10 | 0.13 | 0.18 | 89 | 1015.5 |
| 20260502203853 | 16 | 80 | 1.6 | 6.4 | 0.13 | 0.13 | 0.18 | 89 | 1015.5 |
| 20260502203353 | 16 | 80 | 0.0 | 8.0 | 0.15 | 0.13 | 0.18 | 88 | 1015.5 |
| 20260502203129 | 16 | 80 | 6.4 | 8.0 | 0.15 | 0.13 | 0.18 | 88 | 1015.6 |
| 20260502202353 | 16 | 107 | 3.2 | 6.4 | 0.18 | 0.13 | 0.15 | 88 | 1015.5 |
| 20260502201853 | 16 | 171 | 1.6 | 6.4 | 0.15 | 0.13 | 0.15 | 87 | 1015.5 |
| 20260502201352 | 16 | 171 | 4.8 | 9.7 | 0.15 | 0.13 | 0.15 | 87 | 1015.5 |
| 20260502200353 | 16 | 207 | 8.0 | 11.3 | 0.15 | 0.13 | 0.15 | 86 | 1015.5 |
| 20260502195852 | 16 | 185 | 8.0 | 14.5 | 0.13 | 0.00 | 0.13 | 85 | 1015.4 |
| 20260502195353 | 17 | 173 | 8.0 | 14.5 | 0.13 | 0.00 | 0.10 | 84 | 1015.5 |
| 20260502194852 | 17 | 201 | 9.7 | 11.3 | 0.10 | 0.00 | 0.10 | 82 | 1015.4 |
| 20260502194352 | 17 | 291 | 8.0 | 9.7 | 0.08 | 0.00 | 0.08 | 80 | 1015.4 |
| 20260502193852 | 18 | 358 | 6.4 | 16.1 | 0.05 | 0.00 | 0.05 | 79 | 1015.2 |
| 20260502193352 | 18 | 28 | 11.3 | 16.1 | 0.05 | 0.00 | 0.05 | 76 | 1015.4 |
| 20260502192852 | 19 | 43 | 6.4 | 8.0 | 0.03 | 0.00 | 0.03 | 74 | 1015.2 |
| 20260502192352 | 20 | 71 | 1.6 | 6.4 | 0.00 | 0.00 | 0.00 | 66 | 1015.5 |
| 20260502191851 | 20 | 33 | 3.2 | 6.4 | 0.00 | 0.00 | 0.00 | 63 | 1015.4 |
| 20260502191639 | 20 | 107 | 4.8 | 6.4 | 0.00 | 0.00 | 0.00 | 59 | 1015.4 |
| 20260502190850 | 20 | 133 | 3.2 | 8.0 | 0.00 | 0.00 | 0.00 | 58 | 1015.2 |
| 20260502190350 | 20 | 150 | 4.8 | 14.5 | 0.00 | 0.00 | 0.00 | 61 | 1015.1 |
| 20260502190157 | 20 | 146 | 9.7 | 14.5 | 0.00 | 0.00 | 0.00 | 56 | 1015.1 |
| 20260502185350 | 20 | 142 | 9.7 | 11.3 | 0.00 | 0.00 | 0.00 | 56 | 1015.0 |
| 20260502184848 | 20 | 147 | 6.4 | 16.1 | 0.00 | 0.00 | 0.00 | 55 | 1015.0 |
| 20260502184347 | 20 | 163 | 8.0 | 27.4 | 0.00 | 0.00 | 0.00 | 59 | 1015.1 |
| 20260502183848 | 20 | 122 | 14.5 | 27.4 | 0.00 | 0.00 | 0.00 | 62 | 1015.2 |
| 20260502183350 | 21 | 108 | 19.3 | 25.7 | 0.00 | 0.00 | 0.00 | 64 | 1015.1 |
| 20260502183124 | 21 | 174 | 4.8 | 24.1 | 0.00 | 0.00 | 0.00 | 61 | 1014.8 |
| 20260502182621 | 21 | 202 | 12.9 | 19.3 | 0.00 | 0.00 | 0.00 | 59 | 1014.6 |
| 20260502181846 | 22 | 211 | 9.7 | 19.3 | 0.00 | 0.00 | 0.00 | 57 | 1015.1 |
| 20260502181346 | 22 | 221 | 11.3 | 16.1 | 0.00 | 0.00 | 0.00 | 55 | 1015.1 |
| 20260502180844 | 22 | 224 | 9.7 | 16.1 | 0.00 | 0.00 | 0.00 | 54 | 1015.0 |
| 20260502180618 | 22 | 242 | 14.5 | 16.1 | 0.00 | 0.00 | 0.00 | 52 | 1015.0 |
| 20260502170332 | 23 | 243 | 9.7 | 20.9 | 0.00 | 0.00 | 0.00 | 50 | 1014.7 |
| 20260502164333 | 23 | 207 | 12.9 | 20.9 | 0.00 | 0.00 | 0.00 | 49 | 1014.8 |
| 20260502163831 | 24 | 218 | 14.5 | 19.3 | 0.00 | 0.00 | 0.00 | 49 | 1014.8 |
| 20260502163331 | 24 | 233 | 14.5 | 17.7 | 0.00 | 0.00 | 0.00 | 48 | 1014.9 |
| 20260502162831 | 24 | 235 | 12.9 | 17.7 | 0.00 | 0.00 | 0.00 | 48 | 1014.9 |
| 20260502162331 | 24 | 226 | 11.3 | 20.9 | 0.00 | 0.00 | 0.00 | 48 | 1014.8 |
| 20260502161831 | 23 | 238 | 12.9 | 24.1 | 0.00 | 0.00 | 0.00 | 48 | 1014.9 |
| 20260502161332 | 23 | 187 | 9.7 | 24.1 | 0.00 | 0.00 | 0.00 | 48 | 1014.9 |
| 20260502160831 | 24 | 224 | 16.1 | 24.1 | 0.00 | 0.00 | 0.00 | 48 | 1015.0 |
| 20260502160331 | 24 | 231 | 14.5 | 27.4 | 0.00 | 0.00 | 0.00 | 48 | 1015.1 |
| 20260502152330 | 25 | 216 | 14.5 | 24.1 | 0.00 | 0.00 | 0.00 | 45 | 1015.4 |
| 20260502151829 | 25 | 248 | 16.1 | 24.1 | 0.00 | 0.00 | 0.00 | 44 | 1015.5 |
| 20260502151329 | 25 | 225 | 17.7 | 24.1 | 0.00 | 0.00 | 0.00 | 43 | 1015.4 |
| 20260502150827 | 25 | 216 | 12.9 | 19.3 | 0.00 | 0.00 | 0.00 | 42 | 1015.2 |
| 20260502150326 | 25 | 253 | 14.5 | 19.3 | 0.00 | 0.00 | 0.00 | 42 | 1015.4 |
| 20260502130544 | 25 | 263 | 17.7 | 25.7 | 0.00 | 0.00 | 0.00 | 43 | 1016.8 |
| 20260502123806 | 24 | 214 | 17.7 | 20.9 | 0.00 | 0.00 | 0.00 | 44 | 1017.1 |
| 20260502123304 | 25 | 264 | 12.9 | 19.3 | 0.00 | 0.00 | 0.00 | 43 | 1017.1 |
| 20260502122805 | 25 | 239 | 12.9 | 19.3 | 0.00 | 0.00 | 0.00 | 43 | 1017.3 |
| 20260502122305 | 25 | 310 | 6.4 | 19.3 | 0.00 | 0.00 | 0.00 | 44 | 1017.3 |
| 20260502121302 | 24 | 209 | 14.5 | 20.9 | 0.00 | 0.00 | 0.00 | 45 | 1017.4 |
| 20260502120803 | 23 | 260 | 12.9 | 20.9 | 0.00 | 0.00 | 0.00 | 46 | 1017.5 |
| 20260502120302 | 24 | 219 | 8.0 | 19.3 | 0.00 | 0.00 | 0.00 | 47 | 1017.6 |
| 20260502115804 | 24 | 266 | 14.5 | 19.3 | 0.00 | 0.00 | 0.00 | 45 | 1017.6 |
| 20260502115305 | 24 | 290 | 8.0 | 14.5 | 0.00 | 0.00 | 0.00 | 44 | 1017.6 |
| 20260502115035 | 24 | 257 | 1.6 | 20.9 | 0.00 | 0.00 | 0.00 | 45 | 1017.7 |
| 20260502114301 | 23 | 184 | 9.7 | 20.9 | 0.00 | 0.00 | 0.00 | 45 | 1017.8 |
| 20260502113802 | 23 | 271 | 14.5 | 24.1 | 0.00 | 0.00 | 0.00 | 44 | 1018.0 |
| 20260502113303 | 23 | 259 | 9.7 | 24.1 | 0.00 | 0.00 | 0.00 | 46 | 1018.0 |
| 20260502112802 | 23 | 228 | 16.1 | 20.9 | 0.00 | 0.00 | 0.00 | 45 | 1018.0 |
| 20260502112305 | 23 | 222 | 6.4 | 20.9 | 0.00 | 0.00 | 0.00 | 44 | 1018.2 |
| 20260502111802 | 23 | 266 | 4.8 | 20.9 | 0.00 | 0.00 | 0.00 | 45 | 1018.2 |
| 20260502111302 | 23 | 201 | 17.7 | 20.9 | 0.00 | 0.00 | 0.00 | 46 | 1018.3 |
| 20260502110801 | 23 | 239 | 9.7 | 16.1 | 0.00 | 0.00 | 0.00 | 47 | 1018.4 |
| 20260502110306 | 23 | 281 | 8.0 | 16.1 | 0.00 | 0.00 | 0.00 | 48 | 1018.4 |
| 20260502105803 | 23 | 212 | 3.2 | 17.7 | 0.00 | 0.00 | 0.00 | 50 | 1018.5 |
| 20260502105305 | 22 | 183 | 6.4 | 20.9 | 0.00 | 0.00 | 0.00 | 51 | 1018.6 |
| 20260502104802 | 22 | 232 | 9.7 | 20.9 | 0.00 | 0.00 | 0.00 | 52 | 1018.6 |
| 20260502104302 | 22 | 222 | 14.5 | 19.3 | 0.00 | 0.00 | 0.00 | 53 | 1018.7 |
| 20260502103803 | 22 | 185 | 9.7 | 17.7 | 0.00 | 0.00 | 0.00 | 53 | 1018.8 |
| 20260502103302 | 22 | 215 | 12.9 | 17.7 | 0.00 | 0.00 | 0.00 | 53 | 1018.9 |
| 20260502102802 | 22 | 249 | 6.4 | 17.7 | 0.00 | 0.00 | 0.00 | 53 | 1019.1 |
| 20260502102305 | 22 | 211 | 4.8 | 17.7 | 0.00 | 0.00 | 0.00 | 55 | 1019.1 |
| 20260502101802 | 22 | 310 | 4.8 | 17.7 | 0.00 | 0.00 | 0.00 | 56 | 1019.2 |
| 20260502101302 | 22 | 226 | 6.4 | 17.7 | 0.00 | 0.00 | 0.00 | 54 | 1019.3 |
| 20260502100802 | 22 | 239 | 4.8 | 17.7 | 0.00 | 0.00 | 0.00 | 56 | 1019.4 |
| 20260502100302 | 21 | 255 | 11.3 | 17.7 | 0.00 | 0.00 | 0.00 | 56 | 1019.4 |
| 20260502090802 | 19 | 253 | 3.2 | 11.3 | 0.00 | 0.00 | 0.00 | 60 | 1020.1 |
| 20260502090303 | 18 | 259 | 8.0 | 11.3 | 0.00 | 0.00 | 0.00 | 61 | 1020.1 |
| 20260502071244 | 13 | 345 | 0.0 | 3.2 | 0.00 | 0.00 | 0.00 | 77 | 1021.3 |
| 20260502070244 | 13 | 345 | 0.0 | 3.2 | 0.00 | 0.00 | 0.00 | 77 | 1021.2 |
| 20260502065740 | 13 | 224 | 0.0 | 1.6 | 0.00 | 0.00 | 0.00 | 78 | 1021.2 |
| 20260502065241 | 13 | 224 | 0.0 | 0.0 | 0.00 | 0.00 | 0.00 | 79 | 1021.3 |
| 20260502065025 | 12 | 224 | 0.0 | 1.6 | 0.00 | 0.00 | 0.00 | 81 | 1021.3 |
| 20260502064459 | 12 | 224 | 0.0 | 1.6 | 0.00 | 0.00 | 0.00 | 81 | 1021.3 |
| 20260502063740 | 12 | 224 | 0.0 | 1.6 | 0.00 | 0.00 | 0.00 | 83 | 1021.1 |
| 20260502063240 | 12 | 224 | 0.0 | 1.6 | 0.00 | 0.00 | 0.00 | 83 | 1021.2 |
| 20260502062739 | 11 | 224 | 0.0 | 0.0 | 0.00 | 0.00 | 0.00 | 83 | 1021.2 |
| 20260502062237 | 11 | 224 | 0.0 | 0.0 | 0.00 | 0.00 | 0.00 | 84 | 1021.2 |
| 20260502061736 | 11 | 224 | 0.0 | 0.0 | 0.00 | 0.00 | 0.00 | 84 | 1021.2 |
| 20260502061237 | 11 | 224 | 0.0 | 0.0 | 0.00 | 0.00 | 0.00 | 85 | 1021.2 |
| 20260502060735 | 11 | 224 | 0.0 | 1.6 | 0.00 | 0.00 | 0.00 | 85 | 1021.2 |
| 20260502060236 | 10 | 224 | 0.0 | 1.6 | 0.00 | 0.00 | 0.00 | 86 | 1021.3 |
| 20260502055730 | 10 | 224 | 0.0 | 0.0 | 0.00 | 0.00 | 0.00 | 86 | 1021.3 |
| 20260502055229 | 10 | 224 | 0.0 | 0.0 | 0.00 | 0.00 | 0.00 | 86 | 1021.2 |
| 20260502054728 | 10 | 224 | 0.0 | 0.0 | 0.00 | 0.00 | 0.00 | 86 | 1021.3 |
| 20260502054231 | 10 | 224 | 0.0 | 0.0 | 0.00 | 0.00 | 0.00 | 86 | 1021.3 |
| 20260502053730 | 10 | 224 | 0.0 | 0.0 | 0.00 | 0.00 | 0.00 | 87 | 1021.3 |